Météo par heure à Kismarja

Ce jour, 27 Février, Samedi

Heure Température Précipitation Vent Pression Humidité
00:00 +10°C° 0 mm 1 m/s 758 mmHg 86%
01:00 +10°C° 0 mm 1 m/s 757 mmHg 86%
02:00 +8°C° 0 mm 2 m/s 757 mmHg 87%
03:00 +8°C° 0 mm 3 m/s 757 mmHg 88%
04:00 +6°C° 0 mm 4 m/s 757 mmHg 89%
05:00 +6°C° 0 mm 5 m/s 757 mmHg 83%
06:00 +6°C° 0 mm 5 m/s 758 mmHg 78%
07:00 +5°C° 0 mm 6 m/s 758 mmHg 73%
08:00 +5°C° 0.1 mm 6 m/s 759 mmHg 74%
09:00 +5°C° 0.1 mm 6 m/s 759 mmHg 74%
10:00 +4°C° 0.1 mm 6 m/s 759 mmHg 74%
11:00 +5°C° 0 mm 6 m/s 760 mmHg 69%
12:00 +8°C° 0 mm 7 m/s 760 mmHg 63%
13:00 +9°C° 0 mm 7 m/s 760 mmHg 58%
14:00 +8°C° 0 mm 6 m/s 760 mmHg 59%
15:00 +8°C° 0 mm 6 m/s 761 mmHg 60%
16:00 +8°C° 0 mm 5 m/s 761 mmHg 61%
17:00 +7°C° 0 mm 5 m/s 761 mmHg 65%
18:00 +5°C° 0 mm 5 m/s 762 mmHg 69%
19:00 +3°C° 0 mm 5 m/s 762 mmHg 72%
20:00 +3°C° 0 mm 5 m/s 763 mmHg 72%
21:00 +2°C° 0 mm 5 m/s 763 mmHg 72%
22:00 +2°C° 0 mm 5 m/s 763 mmHg 71%
23:00 +2°C° 0 mm 5 m/s 764 mmHg 73%

Demain, 28 Février, Dimanche

Heure Température Précipitation Vent Pression Humidité
00:00 +1°C° 0 mm 4 m/s 764 mmHg 74%
01:00 +1°C° 0 mm 4 m/s 764 mmHg 76%
02:00 +1°C° 0 mm 4 m/s 764 mmHg 77%
03:00 +2°C° 0 mm 3 m/s 764 mmHg 77%
04:00 +1°C° 0 mm 3 m/s 764 mmHg 78%
05:00 +1°C° 0 mm 3 m/s 764 mmHg 79%
06:00 +1°C° 0 mm 3 m/s 764 mmHg 80%
07:00 +2°C° 0 mm 2 m/s 765 mmHg 81%
08:00 +2°C° 0 mm 3 m/s 765 mmHg 75%
09:00 +4°C° 0 mm 4 m/s 765 mmHg 69%
10:00 +5°C° 0 mm 4 m/s 764 mmHg 62%
11:00 +6°C° 0 mm 4 m/s 764 mmHg 60%
12:00 +7°C° 0 mm 4 m/s 764 mmHg 57%
13:00 +7°C° 0 mm 4 m/s 764 mmHg 54%
14:00 +7°C° 0 mm 4 m/s 764 mmHg 55%
15:00 +8°C° 0 mm 3 m/s 763 mmHg 55%
16:00 +8°C° 0 mm 3 m/s 763 mmHg 56%
17:00 +7°C° 0 mm 2 m/s 763 mmHg 61%
18:00 +7°C° 0 mm 1 m/s 763 mmHg 66%
19:00 +6°C° 0 mm 1 m/s 764 mmHg 71%
20:00 +6°C° 0 mm 1 m/s 763 mmHg 73%
21:00 +5°C° 0 mm 1 m/s 763 mmHg 74%
22:00 +5°C° 0 mm 1 m/s 763 mmHg 76%
23:00 +5°C° 0 mm 1 m/s 763 mmHg 77%

Après-demain, 1 Mars, Lundi

Heure Température Précipitation Vent Pression Humidité
00:00 +4°C° 0 mm 1 m/s 763 mmHg 78%
01:00 +4°C° 0 mm 1 m/s 763 mmHg 79%
02:00 +3°C° 0 mm 0 m/s 763 mmHg 79%
03:00 +3°C° 0 mm 0 m/s 763 mmHg 78%
04:00 +3°C° 0 mm 0 m/s 763 mmHg 78%
05:00 +4°C° 0 mm 1 m/s 763 mmHg 81%
06:00 +3°C° 0 mm 2 m/s 763 mmHg 83%
07:00 +1°C° 0 mm 3 m/s 763 mmHg 85%
08:00 +3°C° 0 mm 3 m/s 764 mmHg 79%
09:00 +4°C° 0 mm 4 m/s 764 mmHg 72%
10:00 +6°C° 0 mm 4 m/s 764 mmHg 66%
11:00 +7°C° 0 mm 4 m/s 764 mmHg 62%
12:00 +8°C° 0 mm 4 m/s 764 mmHg 59%
13:00 +8°C° 0 mm 5 m/s 764 mmHg 55%
14:00 +8°C° 0 mm 4 m/s 764 mmHg 57%
15:00 +8°C° 0 mm 4 m/s 764 mmHg 59%
16:00 +8°C° 0 mm 4 m/s 764 mmHg 61%
17:00 +7°C° 0 mm 3 m/s 764 mmHg 66%
18:00 +5°C° 0 mm 3 m/s 765 mmHg 71%
19:00 +5°C° 0 mm 2 m/s 765 mmHg 76%
20:00 +5°C° 0 mm 2 m/s 765 mmHg 79%
21:00 +4°C° 0 mm 2 m/s 766 mmHg 81%
22:00 +4°C° 0 mm 2 m/s 766 mmHg 83%
23:00 +3°C° 0 mm 2 m/s 766 mmHg 85%

2 Mars, Mardi

Heure Température Précipitation Vent Pression Humidité
00:00 +3°C° 0 mm 2 m/s 766 mmHg 86%
01:00 +2°C° 0 mm 2 m/s 766 mmHg 87%
02:00 +2°C° 0 mm 2 m/s 766 mmHg 88%
03:00 +3°C° 0 mm 1 m/s 766 mmHg 89%
04:00 +3°C° 0 mm 1 m/s 766 mmHg 90%
05:00 +3°C° 0 mm 1 m/s 766 mmHg 89%
06:00 +3°C° 0 mm 1 m/s 766 mmHg 89%
07:00 +2°C° 0 mm 0 m/s 766 mmHg 89%
08:00 +3°C° 0 mm 0 m/s 766 mmHg 82%
09:00 +5°C° 0 mm 0 m/s 766 mmHg 75%
10:00 +8°C° 0 mm 1 m/s 766 mmHg 69%
11:00 +9°C° 0 mm 1 m/s 766 mmHg 65%
12:00 +10°C° 0 mm 1 m/s 766 mmHg 62%
13:00 +10°C° 0 mm 2 m/s 766 mmHg 58%
14:00 +10°C° 0 mm 2 m/s 766 mmHg 58%
15:00 +11°C° 0 mm 1 m/s 765 mmHg 58%
16:00 +11°C° 0 mm 1 m/s 765 mmHg 58%
17:00 +10°C° 0 mm 1 m/s 765 mmHg 63%
18:00 +9°C° 0 mm 1 m/s 765 mmHg 67%
19:00 +8°C° 0 mm 1 m/s 765 mmHg 72%
20:00 +7°C° 0 mm 1 m/s 765 mmHg 74%
21:00 +7°C° 0 mm 1 m/s 766 mmHg 75%
22:00 +7°C° 0 mm 1 m/s 766 mmHg 77%
23:00 +6°C° 0 mm 1 m/s 766 mmHg 78%

3 Mars, Mercredi

Heure Température Précipitation Vent Pression Humidité
00:00 +6°C° 0 mm 1 m/s 766 mmHg 80%
01:00 +6°C° 0 mm 1 m/s 765 mmHg 81%
02:00 +5°C° 0 mm 1 m/s 765 mmHg 82%
03:00 +5°C° 0 mm 1 m/s 765 mmHg 83%
04:00 +5°C° 0 mm 1 m/s 765 mmHg 84%
05:00 +5°C° 0 mm 1 m/s 765 mmHg 84%
06:00 +5°C° 0 mm 1 m/s 765 mmHg 84%
07:00 +5°C° 0 mm 1 m/s 765 mmHg 84%
08:00 +6°C° 0 mm 1 m/s 765 mmHg 77%
09:00 +8°C° 0 mm 1 m/s 765 mmHg 70%
10:00 +9°C° 0 mm 2 m/s 765 mmHg 62%
11:00 +10°C° 0 mm 2 m/s 764 mmHg 58%
12:00 +12°C° 0 mm 2 m/s 764 mmHg 54%
13:00 +13°C° 0 mm 2 m/s 764 mmHg 50%
14:00 +13°C° 0 mm 2 m/s 763 mmHg 51%
15:00 +13°C° 0 mm 2 m/s 763 mmHg 52%
16:00 +13°C° 0 mm 2 m/s 763 mmHg 53%
17:00 +12°C° 0 mm 1 m/s 762 mmHg 57%
18:00 +10°C° 0 mm 1 m/s 762 mmHg 62%
19:00 +9°C° 0 mm 1 m/s 762 mmHg 66%
20:00 +9°C° 0 mm 1 m/s 762 mmHg 67%
21:00 +8°C° 0 mm 1 m/s 762 mmHg 69%
22:00 +8°C° 0 mm 1 m/s 762 mmHg 71%
23:00 +6°C° 0 mm 2 m/s 762 mmHg 72%

4 Mars, Jeudi

Heure Température Précipitation Vent Pression Humidité
00:00 +6°C° 0 mm 2 m/s 762 mmHg 74%
01:00 +5°C° 0 mm 2 m/s 761 mmHg 76%
02:00 +5°C° 0 mm 2 m/s 761 mmHg 77%
03:00 +5°C° 0 mm 2 m/s 760 mmHg 78%
04:00 +4°C° 0 mm 2 m/s 760 mmHg 79%
05:00 +4°C° 0 mm 2 m/s 760 mmHg 80%
06:00 +4°C° 0 mm 2 m/s 759 mmHg 80%
07:00 +4°C° 0 mm 2 m/s 759 mmHg 80%
08:00 +6°C° 0 mm 2 m/s 759 mmHg 74%
09:00 +8°C° 0 mm 2 m/s 759 mmHg 68%
10:00 +10°C° 0 mm 3 m/s 759 mmHg 62%
11:00 +11°C° 0 mm 3 m/s 758 mmHg 59%
12:00 +11°C° 0 mm 3 m/s 757 mmHg 56%
13:00 +12°C° 0 mm 3 m/s 757 mmHg 52%
14:00 +12°C° 0 mm 3 m/s 756 mmHg 54%
15:00 +13°C° 0 mm 2 m/s 756 mmHg 55%
16:00 +13°C° 0 mm 2 m/s 755 mmHg 56%
17:00 +12°C° 0 mm 2 m/s 755 mmHg 61%
18:00 +11°C° 0 mm 1 m/s 755 mmHg 65%
19:00 +9°C° 0 mm 1 m/s 755 mmHg 70%
20:00 +9°C° 0 mm 1 m/s 755 mmHg 72%
21:00 +8°C° 0 mm 2 m/s 754 mmHg 74%
22:00 +7°C° 0 mm 2 m/s 754 mmHg 75%
23:00 +7°C° 0 mm 2 m/s 754 mmHg 76%
Voir plus

Nous avons besoin de votre consentement

Meteoprog et ses fournisseurs de services peuvent stocker et accéder à des données personnelles telles que des cookies, des identifiants d'appareils ou d'autres technologies similaires sur votre appareil et traiter ces données pour personnaliser le contenu et les publicités, ainsi que pour fournir des fonctionnalités de médias sociaux et analyser le trafic.

  • Stocker et/ou accéder à des informations sur votre appareil

    Des cookies, des identifiants d'appareils ou d'autres informations peuvent être stockés ou accessibles sur votre appareil aux fins indiquées ci-dessus.

  • Annonces et contenus personnalisés, mesure des annonces et des contenus, connaissance de l'audience et développement de produits

    Les annonces et le contenu peuvent être personnalisés en fonction d'un profil. D'autres données peuvent être ajoutées pour mieux personnaliser les annonces et le contenu. Les performances des publicités et du contenu peuvent être mesurées. Il est possible d'obtenir des informations sur le public qui a vu les publicités et le contenu. Ces données peuvent être utilisées pour développer ou améliorer l'expérience de l'utilisateur, les systèmes et les logiciels.

En cliquant sur "J'accepte", vous autorisez l'utilisation de cookies, des identifiants d'appareils, des balises web ou d'autres technologies similaires. Vos paramètres peuvent être modifiés dans le navigateur de votre appareil.

Dans certains cas, des intérêts légitimes peuvent être invoqués plutôt qu'un consentement. Vous pouvez en savoir plus à ce sujet dans notre Politique de confidentialité et de cookies.